TUA731 UTAA-UWKD

Flight info

Callsign TUA731
Flight time 3h 10m
Altitude 34000
Route N0460F340 MAMED A87 TIROM Q161 GIRUL N73 NEPIL Z102 RENPI M158 URL A368 GUTAN M161 MOF T793 TONSI
Aircraft B738/M-Q/L

Departure

Time 2026-04-20 11:51
Airport Ashgabat International Airport (UTAA)

Arrival

Time 2026-04-20 15:02
Airport Kazan International Airport (UWKD)
Time Latitude Longitude Altitude Speed Heading
2026-04-20 11:28 37.98341 58.37079 699 ft 0 kts 209°
2026-04-20 11:43 37.98342 58.37080 699 ft 1 kts 210°
2026-04-20 11:44 37.98355 58.37089 699 ft 2 kts 208°
2026-04-20 11:44 37.98368 58.37099 699 ft 2 kts 209°
2026-04-20 11:44 37.98381 58.37108 698 ft 2 kts 209°
2026-04-20 11:44 37.98394 58.37117 698 ft 2 kts 210°
2026-04-20 11:45 37.98405 58.37130 698 ft 2 kts 237°
2026-04-20 11:45 37.98411 58.37147 697 ft 2 kts 257°
2026-04-20 11:45 37.98412 58.37166 697 ft 2 kts 277°
2026-04-20 11:45 37.98409 58.37183 697 ft 0 kts 296°
2026-04-20 11:46 37.98406 58.37190 697 ft 1 kts 300°
2026-04-20 11:46 37.98405 58.37191 697 ft 0 kts 299°
2026-04-20 11:48 37.98417 58.37164 697 ft 6 kts 299°
2026-04-20 11:48 37.98450 58.37090 698 ft 12 kts 299°
2026-04-20 11:48 37.98492 58.36998 700 ft 11 kts 308°
2026-04-20 11:48 37.98576 58.37003 699 ft 14 kts 39°
2026-04-20 11:49 37.98563 58.37146 696 ft 20 kts 118°
2026-04-20 11:49 37.98481 58.37328 693 ft 26 kts 120°
2026-04-20 11:49 37.98389 58.37535 691 ft 28 kts 119°
2026-04-20 11:49 37.98290 58.37755 692 ft 28 kts 120°
2026-04-20 11:50 37.98240 58.37954 692 ft 22 kts 70°
2026-04-20 11:50 37.98354 58.38031 690 ft 15 kts 327°
2026-04-20 11:50 37.98387 58.37977 691 ft 0 kts 299°
2026-04-20 11:50 37.98387 58.37976 691 ft 0 kts 299°
2026-04-20 11:51 37.98487 58.37754 693 ft 65 kts 298°
2026-04-20 11:51 37.98828 58.36987 698 ft 132 kts 299°
2026-04-20 11:51 37.99372 58.35761 701 ft 185 kts 298°
2026-04-20 11:51 38.00021 58.34332 1340 ft 183 kts 300°
2026-04-20 11:52 38.00648 58.32997 2103 ft 181 kts 300°
2026-04-20 11:52 38.01265 58.31558 2632 ft 189 kts 300°
2026-04-20 11:52 38.01900 58.30074 3103 ft 199 kts 302°
2026-04-20 11:52 38.02608 58.28474 3404 ft 219 kts 301°
2026-04-20 11:53 38.03381 58.26738 3766 ft 237 kts 303°
2026-04-20 11:53 38.04327 58.24913 4170 ft 254 kts 307°
2026-04-20 11:53 38.05373 58.23050 4664 ft 266 kts 307°
2026-04-20 11:53 38.06525 58.21189 5213 ft 273 kts 312°
2026-04-20 11:54 38.07800 58.19422 5960 ft 273 kts 316°
2026-04-20 11:54 38.09220 58.17832 6638 ft 275 kts 322°
2026-04-20 11:54 38.10753 58.16371 7298 ft 279 kts 322°
2026-04-20 11:54 38.12323 58.14877 7876 ft 285 kts 321°
2026-04-20 11:55 38.13893 58.13347 8562 ft 287 kts 319°
2026-04-20 11:55 38.15460 58.11800 9182 ft 291 kts 319°
2026-04-20 11:55 38.17073 58.10214 9803 ft 296 kts 319°
2026-04-20 11:55 38.18716 58.08605 10406 ft 300 kts 318°
2026-04-20 11:56 38.20419 58.06926 10711 ft 317 kts 319°
2026-04-20 11:56 38.22198 58.05177 11083 ft 330 kts 318°
2026-04-20 11:56 38.24018 58.03396 11738 ft 333 kts 319°
2026-04-20 11:56 38.25859 58.01594 12423 ft 336 kts 318°
2026-04-20 11:57 38.27714 57.99776 13108 ft 339 kts 317°
2026-04-20 11:57 38.29570 57.97954 13819 ft 341 kts 317°
2026-04-20 11:57 38.31421 57.96138 14547 ft 342 kts 316°
2026-04-20 11:57 38.33303 57.94292 15289 ft 343 kts 316°
2026-04-20 11:58 38.35207 57.92428 16009 ft 345 kts 316°
2026-04-20 11:58 38.37108 57.90562 16697 ft 347 kts 316°
2026-04-20 11:58 38.39033 57.88673 17271 ft 352 kts 315°
2026-04-20 11:58 38.40969 57.86776 17984 ft 353 kts 315°
2026-04-20 11:59 38.42926 57.84853 18578 ft 356 kts 315°
2026-04-20 11:59 38.44890 57.82925 19134 ft 361 kts 315°
2026-04-20 11:59 38.46867 57.80991 19836 ft 360 kts 315°
2026-04-20 11:59 38.48862 57.79039 20345 ft 365 kts 315°
2026-04-20 12:00 38.50885 57.77063 20942 ft 367 kts 315°
2026-04-20 12:00 38.52928 57.75061 21448 ft 371 kts 315°
2026-04-20 12:00 38.54973 57.73062 21929 ft 375 kts 315°
2026-04-20 12:00 38.57045 57.71030 22467 ft 377 kts 315°
2026-04-20 12:01 38.59121 57.69001 23123 ft 376 kts 315°
2026-04-20 12:01 38.61195 57.66967 23462 ft 383 kts 315°
2026-04-20 12:01 38.63246 57.64870 24302 ft 373 kts 312°
2026-04-20 12:01 38.65213 57.62672 24620 ft 378 kts 310°
2026-04-20 12:02 38.67155 57.60441 25198 ft 376 kts 310°
2026-04-20 12:02 38.69111 57.58206 25815 ft 373 kts 310°
2026-04-20 12:02 38.71037 57.56024 26292 ft 373 kts 309°
2026-04-20 12:02 38.72958 57.53844 26792 ft 372 kts 309°
2026-04-20 12:03 38.74893 57.51642 27110 ft 375 kts 309°
2026-04-20 12:03 38.76865 57.49397 27542 ft 376 kts 309°
2026-04-20 12:03 38.78804 57.47208 28078 ft 373 kts 308°
2026-04-20 12:03 38.80766 57.44985 28279 ft 379 kts 309°
2026-04-20 12:04 38.82698 57.42794 28860 ft 373 kts 308°
2026-04-20 12:04 38.84650 57.40582 29163 ft 376 kts 308°
2026-04-20 12:04 38.86617 57.38344 29450 ft 379 kts 308°
2026-04-20 12:04 38.88563 57.36136 29849 ft 378 kts 308°
2026-04-20 12:05 38.90533 57.33895 30203 ft 379 kts 307°
2026-04-20 12:05 38.92518 57.31636 30438 ft 383 kts 307°
2026-04-20 12:05 38.94519 57.29356 30750 ft 385 kts 307°
2026-04-20 12:05 38.96538 57.27054 31016 ft 389 kts 307°
2026-04-20 12:06 38.98548 57.24759 31313 ft 391 kts 306°
2026-04-20 12:06 39.00585 57.22435 31634 ft 392 kts 307°
2026-04-20 12:06 39.02620 57.20113 31931 ft 394 kts 307°
2026-04-20 12:06 39.04669 57.17773 32091 ft 399 kts 307°
2026-04-20 12:07 39.06743 57.15397 32418 ft 399 kts 307°
2026-04-20 12:07 39.08840 57.12994 32622 ft 403 kts 307°
2026-04-20 12:07 39.10934 57.10596 32891 ft 405 kts 307°
2026-04-20 12:07 39.13025 57.08197 33091 ft 407 kts 307°
2026-04-20 12:08 39.15146 57.05773 33529 ft 404 kts 306°
2026-04-20 12:08 39.17248 57.03368 33740 ft 405 kts 307°
2026-04-20 12:08 39.21429 56.98556 33772 ft 405 kts 307°
2026-04-20 12:09 39.25647 56.93704 33774 ft 404 kts 307°
2026-04-20 12:09 39.29831 56.88873 33772 ft 403 kts 307°
2026-04-20 12:10 39.34012 56.84035 33774 ft 407 kts 307°
2026-04-20 12:10 39.38195 56.79201 33776 ft 404 kts 307°
2026-04-20 12:11 39.42422 56.74334 33779 ft 406 kts 307°
2026-04-20 12:11 39.46622 56.69493 33779 ft 409 kts 307°
2026-04-20 12:12 39.50872 56.64587 33774 ft 407 kts 307°
2026-04-20 12:12 39.55087 56.59719 33764 ft 407 kts 307°
2026-04-20 12:13 39.59321 56.54811 33775 ft 409 kts 307°
2026-04-20 12:13 39.63530 56.49928 33773 ft 405 kts 307°
2026-04-20 12:14 39.67739 56.45027 33778 ft 408 kts 307°
2026-04-20 12:14 39.71930 56.40147 33779 ft 406 kts 307°
2026-04-20 12:15 39.76146 56.35223 33782 ft 408 kts 307°
2026-04-20 12:15 39.80371 56.30282 33786 ft 407 kts 307°
2026-04-20 12:16 39.84565 56.25373 33793 ft 409 kts 307°
2026-04-20 12:16 39.88789 56.20410 33794 ft 408 kts 307°
2026-04-20 12:17 39.93006 56.15400 33798 ft 407 kts 307°
2026-04-20 12:17 39.97174 56.10438 33799 ft 410 kts 307°
2026-04-20 12:18 40.01369 56.05445 33797 ft 409 kts 307°
2026-04-20 12:18 40.05570 56.00426 33795 ft 410 kts 307°
2026-04-20 12:19 40.09779 55.95399 33795 ft 410 kts 308°
2026-04-20 12:19 40.13997 55.90351 33798 ft 413 kts 308°
2026-04-20 12:20 40.18213 55.85303 33803 ft 412 kts 308°
2026-04-20 12:20 40.22432 55.80233 33808 ft 414 kts 308°
2026-04-20 12:21 40.26690 55.75108 33813 ft 416 kts 308°
2026-04-20 12:21 40.30937 55.70018 33812 ft 416 kts 308°
2026-04-20 12:22 40.35235 55.64889 33811 ft 416 kts 309°
2026-04-20 12:22 40.39512 55.59766 33814 ft 418 kts 309°
2026-04-20 12:23 40.43787 55.54630 33811 ft 417 kts 309°
2026-04-20 12:23 40.48059 55.49490 33814 ft 420 kts 309°
2026-04-20 12:24 40.52367 55.44296 33817 ft 421 kts 309°
2026-04-20 12:24 40.56676 55.39095 33821 ft 422 kts 309°
2026-04-20 12:25 40.61015 55.33847 33817 ft 424 kts 309°
2026-04-20 12:25 40.65324 55.28628 33814 ft 421 kts 309°
2026-04-20 12:26 40.69604 55.23429 33817 ft 423 kts 309°
2026-04-20 12:26 40.73976 55.18213 33815 ft 425 kts 311°
2026-04-20 12:27 40.78315 55.12947 33815 ft 424 kts 309°
2026-04-20 12:27 40.82608 55.07637 33812 ft 425 kts 309°
2026-04-20 12:28 40.86946 55.02301 33814 ft 426 kts 309°
2026-04-20 12:28 40.91278 54.96977 33814 ft 427 kts 310°
2026-04-20 12:29 40.95634 54.91624 33810 ft 425 kts 310°
2026-04-20 12:29 40.99950 54.86309 33806 ft 427 kts 310°
2026-04-20 12:30 41.04272 54.80979 33809 ft 426 kts 310°
2026-04-20 12:30 41.08609 54.75618 33805 ft 426 kts 310°
2026-04-20 12:31 41.12943 54.70254 33808 ft 427 kts 310°
2026-04-20 12:31 41.17283 54.64869 33811 ft 429 kts 311°
2026-04-20 12:32 41.21614 54.59487 33808 ft 429 kts 311°
2026-04-20 12:32 41.25987 54.54042 33799 ft 430 kts 311°
2026-04-20 12:33 41.30317 54.48644 33806 ft 431 kts 311°
2026-04-20 12:33 41.34699 54.43167 33813 ft 430 kts 311°
2026-04-20 12:34 41.39038 54.37734 33813 ft 431 kts 311°
2026-04-20 12:34 41.43373 54.32294 33817 ft 430 kts 311°
2026-04-20 12:35 41.47720 54.26832 33811 ft 430 kts 310°
2026-04-20 12:35 41.52075 54.21346 33822 ft 432 kts 311°
2026-04-20 12:36 41.56442 54.15834 33821 ft 433 kts 311°
2026-04-20 12:36 41.60796 54.10331 33819 ft 432 kts 311°
2026-04-20 12:37 41.65163 54.04799 33812 ft 433 kts 311°
2026-04-20 12:37 41.69518 53.99272 33812 ft 433 kts 311°
2026-04-20 12:38 41.73883 53.93719 33812 ft 435 kts 311°
2026-04-20 12:38 41.78235 53.88173 33819 ft 433 kts 311°
2026-04-20 12:39 41.84771 53.79824 33836 ft 435 kts 312°
2026-04-20 12:40 41.89146 53.74223 33840 ft 434 kts 312°
2026-04-20 12:40 41.93493 53.68644 33831 ft 435 kts 312°
2026-04-20 12:41 41.97855 53.63036 33837 ft 436 kts 312°
2026-04-20 12:41 42.02229 53.57402 33846 ft 437 kts 312°
2026-04-20 12:42 42.06594 53.51767 33843 ft 437 kts 312°
2026-04-20 12:42 42.10997 53.46073 33850 ft 437 kts 313°
2026-04-20 12:43 42.15371 53.40403 33846 ft 438 kts 313°
2026-04-20 12:43 42.19745 53.34724 33837 ft 436 kts 312°
2026-04-20 12:44 42.24085 53.29076 33842 ft 436 kts 312°
2026-04-20 12:44 42.28441 53.23402 33858 ft 436 kts 312°
2026-04-20 12:45 42.32795 53.17724 33844 ft 437 kts 312°
2026-04-20 12:45 42.37161 53.12018 33841 ft 436 kts 312°
2026-04-20 12:46 42.41504 53.06329 33867 ft 437 kts 312°
2026-04-20 12:46 42.45853 53.00622 33854 ft 437 kts 312°
2026-04-20 12:47 42.50201 52.94902 33841 ft 437 kts 312°
2026-04-20 12:47 42.54556 52.89163 33858 ft 437 kts 312°
2026-04-20 12:48 42.58895 52.83433 33847 ft 437 kts 312°
2026-04-20 12:48 42.63248 52.77671 33864 ft 438 kts 312°
2026-04-20 12:49 42.67590 52.71914 33853 ft 438 kts 312°
2026-04-20 12:49 42.71919 52.66161 33862 ft 438 kts 312°
2026-04-20 12:50 42.76269 52.60368 33852 ft 437 kts 312°
2026-04-20 12:50 42.80584 52.54610 33852 ft 437 kts 312°
2026-04-20 12:51 42.84929 52.48801 33859 ft 437 kts 312°
2026-04-20 12:51 42.89256 52.43004 33864 ft 438 kts 312°
2026-04-20 12:52 42.93583 52.37195 33870 ft 438 kts 312°
2026-04-20 12:52 42.97912 52.31369 33874 ft 438 kts 311°
2026-04-20 12:53 43.02264 52.25502 33872 ft 438 kts 311°
2026-04-20 12:53 43.06683 52.19842 33876 ft 439 kts 317°
2026-04-20 12:53 43.09196 52.17503 33873 ft 444 kts 328°
2026-04-20 12:54 43.12080 52.15881 33881 ft 449 kts 339°
2026-04-20 12:54 43.18263 52.14247 33871 ft 458 kts 357°
2026-04-20 12:55 43.24583 52.15665 33879 ft 466 kts 14°
2026-04-20 12:55 43.30638 52.18807 33876 ft 468 kts 21°
2026-04-20 12:56 43.36626 52.22353 33870 ft 468 kts 21°
2026-04-20 12:56 43.42563 52.25864 33873 ft 468 kts 21°
2026-04-20 12:57 43.48538 52.29374 33873 ft 467 kts 20°
2026-04-20 12:57 43.54522 52.32877 33870 ft 467 kts 20°
2026-04-20 12:58 43.60508 52.36379 33867 ft 466 kts 20°
2026-04-20 12:58 43.66507 52.39750 33866 ft 466 kts 17°
2026-04-20 12:59 43.72789 52.41735 33870 ft 461 kts
2026-04-20 12:59 43.79133 52.42262 33865 ft 459 kts 359°
2026-04-20 13:00 43.85512 52.42609 33865 ft 459 kts 359°
2026-04-20 13:00 43.91883 52.42970 33865 ft 459 kts 359°
2026-04-20 13:01 43.98289 52.43352 33861 ft 459 kts 359°
2026-04-20 13:01 44.04662 52.43742 33863 ft 459 kts 359°
2026-04-20 13:02 44.11041 52.44138 33859 ft 459 kts 359°
2026-04-20 13:02 44.17435 52.44538 33860 ft 459 kts 359°
2026-04-20 13:03 44.23805 52.44938 33858 ft 459 kts 359°
2026-04-20 13:03 44.30190 52.45341 33858 ft 459 kts 359°
2026-04-20 13:04 44.36543 52.45744 33853 ft 459 kts 359°
2026-04-20 13:04 44.42945 52.46149 33852 ft 459 kts 359°
2026-04-20 13:05 44.49342 52.46555 33849 ft 459 kts 359°
2026-04-20 13:05 44.55691 52.46960 33848 ft 459 kts 359°
2026-04-20 13:06 44.62077 52.47368 33844 ft 459 kts 359°
2026-04-20 13:06 44.68449 52.47776 33841 ft 459 kts 359°
2026-04-20 13:07 44.74824 52.48186 33846 ft 459 kts 359°
2026-04-20 13:07 44.81206 52.48596 33849 ft 458 kts 359°
2026-04-20 13:08 44.87555 52.49004 33841 ft 459 kts 359°
2026-04-20 13:08 44.93915 52.49416 33838 ft 459 kts 359°
2026-04-20 13:09 45.00297 52.49828 33832 ft 460 kts 359°
2026-04-20 13:09 45.06686 52.50243 33828 ft 460 kts 359°
2026-04-20 13:10 45.13063 52.50657 33830 ft 459 kts 359°
2026-04-20 13:10 45.19436 52.51072 33828 ft 459 kts 359°
2026-04-20 13:11 45.25790 52.51488 33825 ft 459 kts 359°
2026-04-20 13:11 45.32155 52.51904 33821 ft 459 kts 359°
2026-04-20 13:12 45.38542 52.52322 33818 ft 459 kts 359°
2026-04-20 13:12 45.44898 52.52739 33814 ft 461 kts 359°
2026-04-20 13:13 45.51296 52.53161 33810 ft 460 kts 359°
2026-04-20 13:13 45.57682 52.53177 33812 ft 459 kts 354°
2026-04-20 13:14 45.64021 52.52640 33805 ft 458 kts 353°
2026-04-20 13:14 45.70357 52.52076 33803 ft 458 kts 353°
2026-04-20 13:15 45.76714 52.51534 33805 ft 458 kts 353°
2026-04-20 13:15 45.83078 52.51006 33800 ft 459 kts 353°
2026-04-20 13:16 45.89401 52.50489 33807 ft 459 kts 353°
2026-04-20 13:16 45.95764 52.49970 33815 ft 459 kts 353°
2026-04-20 13:17 46.02160 52.49450 33810 ft 459 kts 353°
2026-04-20 13:17 46.08527 52.48931 33801 ft 460 kts 353°
2026-04-20 13:18 46.14902 52.48412 33807 ft 461 kts 353°
2026-04-20 13:18 46.21286 52.47890 33797 ft 460 kts 353°
2026-04-20 13:19 46.27673 52.47367 33799 ft 461 kts 353°
2026-04-20 13:19 46.34072 52.46842 33783 ft 462 kts 353°
2026-04-20 13:20 46.40418 52.46321 33778 ft 461 kts 353°
2026-04-20 13:20 46.46839 52.45792 33788 ft 462 kts 353°
2026-04-20 13:21 46.53218 52.45133 33785 ft 459 kts 348°
2026-04-20 13:21 46.59236 52.42513 33777 ft 449 kts 327°
2026-04-20 13:22 46.64310 52.37488 33777 ft 443 kts 317°
2026-04-20 13:22 46.69162 52.32013 33767 ft 442 kts 317°
2026-04-20 13:23 46.74003 52.26506 33762 ft 443 kts 317°
2026-04-20 13:23 46.78856 52.20981 33767 ft 443 kts 317°
2026-04-20 13:24 46.83707 52.15450 33755 ft 442 kts 317°
2026-04-20 13:24 46.88518 52.09956 33754 ft 443 kts 316°
2026-04-20 13:25 46.93373 52.04398 33762 ft 443 kts 316°
2026-04-20 13:25 46.98231 51.98823 33759 ft 443 kts 316°
2026-04-20 13:26 47.03062 51.93268 33757 ft 443 kts 316°
2026-04-20 13:26 47.07894 51.87698 33762 ft 443 kts 316°
2026-04-20 13:27 47.12997 51.82534 33752 ft 452 kts 327°
2026-04-20 13:27 47.15963 51.80853 33754 ft 461 kts 341°
2026-04-20 13:27 47.19105 51.80040 33761 ft 467 kts 349°
2026-04-20 13:28 47.25610 51.79404 33752 ft 470 kts 353°
2026-04-20 13:28 47.32185 51.79043 33753 ft 472 kts 354°
2026-04-20 13:29 47.38733 51.78686 33750 ft 471 kts 353°
2026-04-20 13:29 47.45244 51.78313 33748 ft 472 kts 353°
2026-04-20 13:30 47.51819 51.77927 33748 ft 472 kts 353°
2026-04-20 13:30 47.58338 51.77540 33745 ft 472 kts 353°
2026-04-20 13:31 47.64887 51.77152 33741 ft 471 kts 353°
2026-04-20 13:31 47.71431 51.76761 33739 ft 473 kts 353°
2026-04-20 13:32 47.78032 51.76363 33733 ft 473 kts 353°
2026-04-20 13:32 47.84611 51.75967 33732 ft 474 kts 353°
2026-04-20 13:33 47.91192 51.75565 33733 ft 474 kts 353°
2026-04-20 13:33 47.97775 51.75156 33737 ft 474 kts 353°
2026-04-20 13:34 48.04356 51.74744 33737 ft 475 kts 353°
2026-04-20 13:34 48.10956 51.74329 33733 ft 477 kts 353°
2026-04-20 13:35 48.17586 51.73914 33735 ft 476 kts 353°
2026-04-20 13:35 48.24170 51.73504 33733 ft 476 kts 353°
2026-04-20 13:36 48.30819 51.73086 33729 ft 477 kts 353°
2026-04-20 13:36 48.37410 51.72668 33724 ft 479 kts 353°
2026-04-20 13:37 48.44082 51.72248 33719 ft 479 kts 353°
2026-04-20 13:37 48.50737 51.71825 33716 ft 480 kts 353°
2026-04-20 13:38 48.57419 51.71399 33720 ft 480 kts 353°
2026-04-20 13:38 48.64073 51.70975 33722 ft 481 kts 352°
2026-04-20 13:39 48.70712 51.70552 33719 ft 480 kts 353°
2026-04-20 13:39 48.77382 51.70125 33717 ft 481 kts 353°
2026-04-20 13:40 48.84094 51.69695 33720 ft 481 kts 352°
2026-04-20 13:40 48.90755 51.69265 33707 ft 483 kts 353°
2026-04-20 13:41 48.97465 51.68830 33704 ft 484 kts 352°
2026-04-20 13:41 49.04151 51.68400 33701 ft 482 kts 352°
2026-04-20 13:42 49.10888 51.67959 33697 ft 484 kts 352°
2026-04-20 13:42 49.20925 51.67306 33698 ft 484 kts 352°
2026-04-20 13:43 49.27673 51.66864 33699 ft 485 kts 352°
2026-04-20 13:43 49.34380 51.66422 33698 ft 485 kts 352°
2026-04-20 13:44 49.41130 51.65980 33694 ft 485 kts 352°
2026-04-20 13:44 49.47842 51.65533 33692 ft 484 kts 352°
2026-04-20 13:45 49.54567 51.65084 33692 ft 486 kts 352°
2026-04-20 13:45 49.61289 51.64636 33686 ft 485 kts 352°
2026-04-20 13:46 49.68036 51.64184 33682 ft 487 kts 352°
2026-04-20 13:46 49.74786 51.63737 33684 ft 485 kts 352°
2026-04-20 13:47 49.81491 51.63286 33685 ft 487 kts 352°
2026-04-20 13:47 49.88274 51.62827 33681 ft 486 kts 352°
2026-04-20 13:48 49.95011 51.62374 33687 ft 486 kts 352°
2026-04-20 13:48 50.01755 51.61917 33681 ft 485 kts 352°
2026-04-20 13:49 50.08497 51.61458 33667 ft 485 kts 352°
2026-04-20 13:49 50.15249 51.60997 33679 ft 488 kts 352°
2026-04-20 13:50 50.21994 51.60537 33674 ft 487 kts 352°
2026-04-20 13:50 50.28732 51.60078 33675 ft 486 kts 352°
2026-04-20 13:51 50.35513 51.59611 33667 ft 487 kts 353°
2026-04-20 13:51 50.42250 51.59153 33660 ft 485 kts 353°
2026-04-20 13:52 50.48975 51.58710 33658 ft 486 kts 353°
2026-04-20 13:52 50.55718 51.58270 33643 ft 486 kts 353°
2026-04-20 13:53 50.62452 51.57834 33651 ft 486 kts 353°
2026-04-20 13:53 50.69193 51.57395 33657 ft 485 kts 353°
2026-04-20 13:54 50.75973 51.56951 33657 ft 486 kts 353°
2026-04-20 13:54 50.82665 51.56513 33655 ft 484 kts 353°
2026-04-20 13:55 50.89417 51.56070 33658 ft 485 kts 353°
2026-04-20 13:55 50.96135 51.55629 33646 ft 485 kts 353°
2026-04-20 13:56 51.02855 51.55186 33658 ft 484 kts 353°
2026-04-20 13:56 51.09603 51.54704 33661 ft 484 kts 351°
2026-04-20 13:57 51.16025 51.52505 33653 ft 469 kts 331°
2026-04-20 13:57 51.21597 51.47409 33654 ft 460 kts 320°
2026-04-20 13:58 51.26915 51.41745 33662 ft 460 kts 320°
2026-04-20 13:58 51.32212 51.36057 33646 ft 461 kts 320°
2026-04-20 13:59 51.37525 51.30369 33647 ft 460 kts 319°
2026-04-20 13:59 51.42837 51.24674 33644 ft 460 kts 320°
2026-04-20 14:00 51.48139 51.19012 33639 ft 462 kts 320°
2026-04-20 14:00 51.53502 51.13366 33629 ft 460 kts 320°
2026-04-20 14:01 51.58822 51.07743 33633 ft 460 kts 320°
2026-04-20 14:01 51.64187 51.02143 33636 ft 462 kts 323°
2026-04-20 14:02 51.70006 50.97592 33647 ft 472 kts 336°
2026-04-20 14:02 51.76371 50.94620 33644 ft 476 kts 340°
2026-04-20 14:03 51.82809 50.91937 33650 ft 477 kts 341°
2026-04-20 14:03 51.89226 50.89240 33640 ft 476 kts 341°
2026-04-20 14:04 51.95615 50.86511 33640 ft 477 kts 340°
2026-04-20 14:04 52.02068 50.83762 33629 ft 478 kts 341°
2026-04-20 14:05 52.08490 50.81023 33629 ft 479 kts 341°
2026-04-20 14:05 52.14894 50.78277 33630 ft 478 kts 341°
2026-04-20 14:06 52.21335 50.75502 33625 ft 479 kts 341°
2026-04-20 14:06 52.27723 50.72744 33628 ft 477 kts 341°
2026-04-20 14:07 52.34167 50.69951 33623 ft 479 kts 341°
2026-04-20 14:07 52.40564 50.67171 33627 ft 477 kts 341°
2026-04-20 14:08 52.47012 50.64359 33627 ft 478 kts 341°
2026-04-20 14:08 52.53425 50.61554 33626 ft 478 kts 341°
2026-04-20 14:09 52.59870 50.58729 33626 ft 478 kts 341°
2026-04-20 14:09 52.66277 50.55904 33628 ft 478 kts 341°
2026-04-20 14:10 52.72702 50.53061 33623 ft 478 kts 341°
2026-04-20 14:10 52.79126 50.50215 33628 ft 477 kts 341°
2026-04-20 14:11 52.85502 50.47378 33622 ft 479 kts 341°
2026-04-20 14:11 52.91953 50.44500 33617 ft 479 kts 341°
2026-04-20 14:12 52.98378 50.41625 33616 ft 479 kts 341°
2026-04-20 14:12 53.04817 50.38736 33620 ft 480 kts 342°
2026-04-20 14:13 53.11233 50.35846 33632 ft 479 kts 341°
2026-04-20 14:13 53.17717 50.32918 33620 ft 479 kts 341°
2026-04-20 14:14 53.24149 50.30004 33622 ft 479 kts 341°
2026-04-20 14:14 53.30531 50.27106 33633 ft 478 kts 341°
2026-04-20 14:15 53.36983 50.24166 33625 ft 479 kts 341°
2026-04-20 14:15 53.43386 50.21238 33636 ft 479 kts 341°
2026-04-20 14:16 53.49834 50.18277 33634 ft 480 kts 341°
2026-04-20 14:16 53.56329 50.15463 33628 ft 479 kts 343°
2026-04-20 14:17 53.62792 50.12874 33624 ft 482 kts 344°
2026-04-20 14:17 53.69336 50.10239 33616 ft 482 kts 343°
2026-04-20 14:18 53.75889 50.07571 33612 ft 481 kts 344°
2026-04-20 14:18 53.82373 50.04913 33606 ft 480 kts 344°
2026-04-20 14:19 53.88877 50.02232 33592 ft 481 kts 344°
2026-04-20 14:19 53.95363 49.99552 33613 ft 480 kts 344°
2026-04-20 14:20 54.01860 49.96859 33622 ft 472 kts 344°
2026-04-20 14:20 54.08231 49.94204 33604 ft 479 kts 344°
2026-04-20 14:21 54.14748 49.91469 33635 ft 484 kts 344°
2026-04-20 14:21 54.21344 49.88699 33385 ft 488 kts 344°
2026-04-20 14:22 54.24641 49.87311 32787 ft 492 kts 345°
2026-04-20 14:22 54.27978 49.85903 32166 ft 493 kts 345°
2026-04-20 14:22 54.31287 49.84504 31530 ft 493 kts 345°
2026-04-20 14:22 54.34587 49.83118 30872 ft 494 kts 346°
2026-04-20 14:23 54.38003 49.81951 30126 ft 494 kts 350°
2026-04-20 14:23 54.41367 49.81067 29455 ft 493 kts 351°
2026-04-20 14:23 54.44761 49.80269 28769 ft 492 kts 352°
2026-04-20 14:23 54.48133 49.79502 28117 ft 489 kts 352°
2026-04-20 14:24 54.51493 49.78732 27589 ft 484 kts 352°
2026-04-20 14:24 54.54755 49.77969 27401 ft 471 kts 352°
2026-04-20 14:24 54.57932 49.77216 27260 ft 457 kts 352°
2026-04-20 14:24 54.61036 49.76473 27114 ft 445 kts 352°
2026-04-20 14:25 54.64056 49.75746 26958 ft 434 kts 352°
2026-04-20 14:25 54.67030 49.75028 26457 ft 432 kts 352°
2026-04-20 14:25 54.69967 49.74315 26043 ft 427 kts 352°
2026-04-20 14:25 54.72928 49.73563 25596 ft 423 kts 350°
2026-04-20 14:26 54.75784 49.72508 25143 ft 420 kts 345°
2026-04-20 14:26 54.78541 49.71072 24608 ft 418 kts 341°
2026-04-20 14:26 54.81265 49.69432 24193 ft 413 kts 340°
2026-04-20 14:26 54.83946 49.67794 23765 ft 409 kts 340°
2026-04-20 14:27 54.86629 49.66170 23315 ft 406 kts 340°
2026-04-20 14:27 54.89259 49.64577 22862 ft 403 kts 340°
2026-04-20 14:27 54.91916 49.62963 22360 ft 401 kts 340°
2026-04-20 14:27 54.94502 49.61383 21949 ft 397 kts 340°
2026-04-20 14:28 54.97113 49.59784 21498 ft 394 kts 340°
2026-04-20 14:28 54.99680 49.58208 21047 ft 391 kts 340°
2026-04-20 14:28 55.02210 49.56652 20611 ft 388 kts 340°
2026-04-20 14:28 55.04744 49.55091 20200 ft 384 kts 340°
2026-04-20 14:29 55.07205 49.53573 19994 ft 375 kts 340°
2026-04-20 14:29 55.09656 49.52082 19684 ft 369 kts 341°
2026-04-20 14:29 55.12022 49.50612 19424 ft 362 kts 340°
2026-04-20 14:29 55.14390 49.49106 18976 ft 360 kts 340°
2026-04-20 14:30 55.16731 49.47661 18724 ft 353 kts 341°
2026-04-20 14:30 55.19085 49.46614 18332 ft 351 kts 355°
2026-04-20 14:30 55.21484 49.46976 17850 ft 348 kts 21°
2026-04-20 14:30 55.23549 49.48965 17417 ft 341 kts 43°
2026-04-20 14:31 55.25222 49.51846 16858 ft 340 kts 54°
2026-04-20 14:31 55.26427 49.55327 16389 ft 332 kts 76°
2026-04-20 14:31 55.26629 49.59220 15982 ft 320 kts 103°
2026-04-20 14:31 55.26109 49.63008 15416 ft 319 kts 109°
2026-04-20 14:32 55.25315 49.66562 14880 ft 315 kts 124°
2026-04-20 14:32 55.23846 49.69284 14446 ft 307 kts 149°
2026-04-20 14:32 55.21915 49.70673 13944 ft 305 kts 166°
2026-04-20 14:32 55.19875 49.71672 13450 ft 306 kts 162°
2026-04-20 14:33 55.17879 49.72996 13016 ft 304 kts 159°
2026-04-20 14:33 55.15944 49.74362 12530 ft 304 kts 159°
2026-04-20 14:33 55.13969 49.75648 12070 ft 302 kts 162°
2026-04-20 14:33 55.11994 49.76840 11622 ft 302 kts 162°
2026-04-20 14:34 55.10004 49.78014 11159 ft 301 kts 161°
2026-04-20 14:34 55.08032 49.79172 10667 ft 301 kts 167°
2026-04-20 14:34 55.05990 49.79633 10214 ft 297 kts 184°
2026-04-20 14:34 55.04016 49.78709 9817 ft 294 kts 207°
2026-04-20 14:35 55.02433 49.76638 9651 ft 286 kts 226°
2026-04-20 14:35 55.01351 49.73735 9286 ft 285 kts 245°
2026-04-20 14:35 55.00808 49.70457 8862 ft 284 kts 258°
2026-04-20 14:35 55.00648 49.67065 8476 ft 281 kts 268°
2026-04-20 14:36 55.00929 49.63749 8119 ft 280 kts 287°
2026-04-20 14:36 55.01816 49.60777 7770 ft 277 kts 303°
2026-04-20 14:36 55.03059 49.58239 7420 ft 273 kts 315°
2026-04-20 14:36 55.04453 49.56068 7085 ft 269 kts 317°
2026-04-20 14:37 55.05971 49.54214 6725 ft 268 kts 336°
2026-04-20 14:37 55.07734 49.53363 6418 ft 264 kts 344°
2026-04-20 14:37 55.09475 49.52355 6085 ft 259 kts 335°
2026-04-20 14:37 55.11113 49.51189 5764 ft 257 kts 337°
2026-04-20 14:38 55.12775 49.50125 5431 ft 254 kts 340°
2026-04-20 14:38 55.14431 49.49091 5112 ft 250 kts 340°
2026-04-20 14:38 55.16059 49.48082 4792 ft 247 kts 339°
2026-04-20 14:38 55.17668 49.47168 4477 ft 245 kts 347°
2026-04-20 14:39 55.19360 49.47086 4203 ft 241 kts 16°
2026-04-20 14:39 55.20790 49.48421 3962 ft 236 kts 48°
2026-04-20 14:39 55.21782 49.50623 3936 ft 228 kts 63°
2026-04-20 14:39 55.22339 49.53201 3917 ft 225 kts 91°
2026-04-20 14:40 55.22000 49.55746 3970 ft 218 kts 121°
2026-04-20 14:40 55.21272 49.58114 3934 ft 219 kts 127°
2026-04-20 14:40 55.20206 49.59882 3895 ft 210 kts 162°
2026-04-20 14:40 55.18817 49.60413 3966 ft 206 kts 168°
2026-04-20 14:41 55.17429 49.61235 3932 ft 210 kts 158°
2026-04-20 14:41 55.16080 49.62161 3910 ft 207 kts 162°
2026-04-20 14:41 55.14724 49.62999 3924 ft 210 kts 162°
2026-04-20 14:41 55.13349 49.63871 3916 ft 211 kts 163°
2026-04-20 14:42 55.11968 49.64704 3909 ft 210 kts 162°
2026-04-20 14:42 55.10586 49.65581 3914 ft 211 kts 162°
2026-04-20 14:42 55.09167 49.66190 3898 ft 210 kts 179°
2026-04-20 14:42 55.07766 49.65781 3907 ft 207 kts 205°
2026-04-20 14:43 55.06649 49.64158 3923 ft 215 kts 234°
2026-04-20 14:43 55.05888 49.61886 3924 ft 218 kts 239°
2026-04-20 14:43 55.05314 49.59472 3892 ft 218 kts 258°
2026-04-20 14:43 55.05508 49.56871 3915 ft 226 kts 295°
2026-04-20 14:44 55.06534 49.54763 3946 ft 234 kts 319°
2026-04-20 14:44 55.07869 49.53111 3920 ft 235 kts 331°
2026-04-20 14:44 55.09403 49.52121 3762 ft 239 kts 346°
2026-04-20 14:44 55.11006 49.51448 3520 ft 238 kts 343°
2026-04-20 14:45 55.12575 49.50630 3261 ft 235 kts 342°
2026-04-20 14:45 55.14130 49.49799 3106 ft 231 kts 342°
2026-04-20 14:45 55.15671 49.49000 3137 ft 235 kts 343°
2026-04-20 14:45 55.17259 49.48199 3126 ft 237 kts 343°
2026-04-20 14:46 55.18819 49.47409 3126 ft 235 kts 343°
2026-04-20 14:46 55.20385 49.46616 3123 ft 235 kts 343°
2026-04-20 14:46 55.21967 49.45777 3138 ft 239 kts 343°
2026-04-20 14:46 55.23546 49.44961 3126 ft 235 kts 343°
2026-04-20 14:47 55.25100 49.44144 3136 ft 232 kts 343°
2026-04-20 14:47 55.26676 49.43341 3139 ft 238 kts 345°
2026-04-20 14:47 55.28278 49.42587 3130 ft 238 kts 345°
2026-04-20 14:48 55.31480 49.40949 3160 ft 254 kts 343°
2026-04-20 14:48 55.33211 49.40058 3131 ft 264 kts 343°
2026-04-20 14:48 55.34948 49.39157 3102 ft 250 kts 343°
2026-04-20 14:48 55.36568 49.38327 3121 ft 238 kts 343°
2026-04-20 14:49 55.38141 49.37504 3131 ft 236 kts 344°
2026-04-20 14:49 55.39722 49.36704 3144 ft 240 kts 344°
2026-04-20 14:49 55.41324 49.35843 3132 ft 242 kts 340°
2026-04-20 14:49 55.42713 49.34256 3113 ft 238 kts 306°
2026-04-20 14:50 55.43369 49.31739 3117 ft 218 kts 279°
2026-04-20 14:50 55.43637 49.29213 3153 ft 202 kts 273°
2026-04-20 14:50 55.43786 49.26756 3147 ft 201 kts 264°
2026-04-20 14:50 55.43769 49.24365 3136 ft 193 kts 266°
2026-04-20 14:51 55.43879 49.22051 3187 ft 187 kts 272°
2026-04-20 14:51 55.44111 49.19767 3148 ft 191 kts 278°
2026-04-20 14:51 55.44472 49.17528 3148 ft 190 kts 285°
2026-04-20 14:51 55.44956 49.15369 3153 ft 193 kts 289°
2026-04-20 14:52 55.45536 49.13197 3152 ft 195 kts 294°
2026-04-20 14:52 55.46221 49.11126 3146 ft 198 kts 299°
2026-04-20 14:52 55.46997 49.09147 3144 ft 197 kts 303°
2026-04-20 14:52 55.47842 49.07320 3133 ft 190 kts 308°
2026-04-20 14:53 55.48770 49.05607 3141 ft 194 kts 313°
2026-04-20 14:53 55.49784 49.04008 3148 ft 198 kts 319°
2026-04-20 14:53 55.50882 49.02546 3144 ft 199 kts 324°
2026-04-20 14:53 55.52050 49.01226 3138 ft 200 kts 330°
2026-04-20 14:54 55.53280 49.00085 3137 ft 195 kts 335°
2026-04-20 14:54 55.54491 48.99164 3140 ft 189 kts 340°
2026-04-20 14:54 55.55734 48.98413 3145 ft 191 kts 345°
2026-04-20 14:54 55.57022 48.97830 3142 ft 192 kts 349°
2026-04-20 14:55 55.58345 48.97422 3148 ft 191 kts 355°
2026-04-20 14:55 55.59645 48.97205 3178 ft 187 kts 360°
2026-04-20 14:55 55.60954 48.97164 3183 ft 190 kts
2026-04-20 14:55 55.62250 48.97300 3165 ft 185 kts
2026-04-20 14:56 55.63528 48.97609 3120 ft 186 kts 14°
2026-04-20 14:56 55.64787 48.98086 2957 ft 182 kts 19°
2026-04-20 14:56 55.65981 48.98710 2761 ft 178 kts 25°
2026-04-20 14:56 55.67119 48.99475 2544 ft 171 kts 32°
2026-04-20 14:57 55.68130 49.00436 2434 ft 162 kts 38°
2026-04-20 14:57 55.68966 49.01637 2440 ft 153 kts 62°
2026-04-20 14:57 55.69336 49.03340 2446 ft 146 kts 85°
2026-04-20 14:57 55.69132 49.05018 2447 ft 141 kts 122°
2026-04-20 14:58 55.68627 49.06526 2446 ft 145 kts 116°
2026-04-20 14:58 55.68189 49.08115 2430 ft 142 kts 119°
2026-04-20 14:58 55.67672 49.09590 2431 ft 139 kts 122°
2026-04-20 14:58 55.67143 49.11017 2315 ft 138 kts 122°
2026-04-20 14:59 55.66597 49.12448 2106 ft 142 kts 121°
2026-04-20 14:59 55.66061 49.13844 1899 ft 136 kts 121°
2026-04-20 14:59 55.65526 49.15234 1718 ft 136 kts 120°
2026-04-20 14:59 55.64992 49.16620 1538 ft 140 kts 121°
2026-04-20 15:00 55.64434 49.18060 1331 ft 140 kts 121°
2026-04-20 15:00 55.63885 49.19483 1148 ft 142 kts 121°
2026-04-20 15:00 55.63334 49.20922 878 ft 142 kts 122°
2026-04-20 15:00 55.62791 49.22347 695 ft 141 kts 121°
2026-04-20 15:01 55.62223 49.23768 491 ft 143 kts 122°
2026-04-20 15:01 55.61661 49.25207 353 ft 136 kts 121°
2026-04-20 15:01 55.61203 49.26408 361 ft 94 kts 123°
2026-04-20 15:01 55.60942 49.27075 373 ft 57 kts 124°
2026-04-20 15:02 55.60741 49.27596 383 ft 39 kts 126°
2026-04-20 15:02 55.60568 49.28040 390 ft 48 kts 124°
2026-04-20 15:02 55.60441 49.28362 395 ft 26 kts 123°
2026-04-20 15:02 55.60395 49.28568 398 ft 14 kts 60°
2026-04-20 15:03 55.60467 49.28666 400 ft 11 kts 34°
2026-04-20 15:03 55.60548 49.28766 405 ft 15 kts 34°
2026-04-20 15:03 55.60583 49.28914 406 ft 15 kts 91°
2026-04-20 15:03 55.60575 49.29094 408 ft 13 kts 94°
2026-04-20 15:04 55.60589 49.29259 410 ft 12 kts 62°
2026-04-20 15:04 55.60657 49.29335 411 ft 11 kts 13°
2026-04-20 15:04 55.60722 49.29352 410 ft 4 kts 26°
2026-04-20 15:04 55.60719 49.29418 410 ft 7 kts 118°
2026-04-20 15:05 55.60687 49.29508 411 ft 8 kts 114°
2026-04-20 15:05 55.60694 49.29571 412 ft 4 kts 44°
2026-04-20 15:05 55.60708 49.29592 412 ft 0 kts 39°